GW4237 Weather Reports


time (UTC)temp
C
wind
direction
speed
KPH
gust
KPH
rain 1hr
cm
rain 24hr
cm
rain mn
cm
humidity
%
barometer
mb
20260508001524 22 238 9.7 16.1 0.00 0.00 0.00 62 1014.6
20260508000022 23 205 9.7 17.7 0.00 0.00 0.00 61 1014.5
20260507234521 23 219 4.8 17.7 0.00 0.00 0.00 60 1014.5
20260507233022 23 150 8.0 19.3 0.00 0.00 0.00 59 1014.6
20260507231522 23 225 9.7 17.7 0.00 0.00 0.00 59 1014.6
20260507230123 23 225 9.7 19.3 0.00 0.00 0.00 57 1014.6
20260507224518 23 138 9.7 16.1 0.00 0.00 0.00 56 1014.7
20260507223017 23 194 9.7 17.7 0.00 0.00 0.00 58 1014.8
20260507221519 23 139 6.4 17.7 0.00 0.00 0.00 57 1014.8
20260507220014 23 205 9.7 16.1 0.00 0.00 0.00 57 1015.1
20260507214518 24 247 8.0 16.1 0.00 0.00 0.00 56 1015.2
20260507213012 23 244 9.7 20.9 0.00 0.00 0.00 56 1015.4
20260507211510 23 229 6.4 16.1 0.00 0.00 0.00 57 1015.5
20260507210009 23 249 9.7 17.7 0.00 0.00 0.00 59 1015.5
20260507204506 23 228 8.0 19.3 0.00 0.00 0.00 59 1015.7
20260507203006 23 232 6.4 16.1 0.00 0.00 0.00 60 1015.7
20260507201510 23 223 9.7 17.7 0.00 0.00 0.00 60 1015.8
20260507200004 23 233 6.4 19.3 0.00 0.00 0.00 61 1015.9
20260507194503 23 254 9.7 22.5 0.00 0.00 0.00 63 1016.1
20260507193001 23 222 6.4 14.5 0.00 0.00 0.00 61 1016.2
20260507191600 23 306 1.6 11.3 0.00 0.00 0.00 58 1016.3
20260507190056 23 279 6.4 14.5 0.00 0.00 0.00 60 1016.6
20260507184552 22 249 4.8 11.3 0.00 0.00 0.00 60 1016.8
20260507183050 22 261 1.6 9.7 0.00 0.00 0.00 60 1016.9
20260507181546 22 275 3.2 9.7 0.00 0.00 0.00 62 1017.0
20260507180053 21 117 4.8 11.3 0.00 0.00 0.00 63 1017.2
20260507174541 21 265 3.2 8.0 0.00 0.00 0.00 64 1017.2
20260507173040 20 148 3.2 9.7 0.00 0.00 0.00 67 1017.3
20260507171539 20 250 3.2 9.7 0.00 0.00 0.00 67 1017.3
20260507170032 19 294 3.2 11.3 0.00 0.00 0.00 70 1017.4
20260507164531 18 270 3.2 9.7 0.00 0.00 0.00 71 1017.4
20260507163027 18 190 3.2 8.0 0.00 0.00 0.00 73 1017.6
20260507161535 18 274 3.2 8.0 0.00 0.00 0.00 74 1017.5
20260507160039 17 307 3.2 8.0 0.00 0.00 0.00 75 1017.6
20260507154517 17 184 0.0 3.2 0.00 0.00 0.00 78 1017.7
20260507153014 16 241 1.6 8.0 0.00 0.00 0.00 79 1017.9
20260507151514 16 253 1.6 8.0 0.00 0.00 0.00 80 1017.8
20260507150012 16 227 1.6 8.0 0.00 0.00 0.00 81 1017.8
20260507144514 15 243 1.6 6.4 0.00 0.00 0.00 82 1017.8
20260507143013 15 234 0.0 3.2 0.00 0.00 0.00 82 1017.8
20260507141516 14 343 0.0 3.2 0.00 0.00 0.00 82 1017.6
20260507140010 13 9 1.6 3.2 0.00 0.00 0.00 83 1017.5
20260507134508 13 11 0.0 3.2 0.00 0.00 0.00 83 1017.2
20260507133009 13 98 0.0 0.0 0.00 0.00 0.00 83 1017.0
20260507131507 13 98 0.0 1.6 0.00 0.00 0.00 83 1016.9
20260507130020 13 98 0.0 6.4 0.00 0.00 0.00 83 1016.9
20260507124506 13 11 0.0 0.0 0.00 0.00 0.00 83 1016.7
20260507123005 13 360 0.0 0.0 0.00 0.00 0.00 82 1016.8
20260507121504 13 355 0.0 0.0 0.00 0.00 0.00 82 1016.8
20260507120002 13 349 0.0 0.0 0.00 0.00 0.00 82 1016.9
20260507114613 14 11 0.0 0.0 0.00 0.00 0.00 81 1016.9
20260507113059 14 42 0.0 1.6 0.00 0.00 0.00 81 1016.8
20260507111557 14 44 0.0 1.6 0.00 0.00 0.00 80 1017.0
20260507110057 14 109 0.0 3.2 0.00 0.00 0.00 80 1017.0
20260507104558 14 109 1.6 3.2 0.00 0.00 0.00 80 1017.0
20260507103054 15 35 0.0 3.2 0.00 0.00 0.00 80 1017.2
20260507101557 15 68 0.0 3.2 0.00 0.00 0.00 79 1017.1
20260507100055 15 24 0.0 3.2 0.00 0.00 0.00 80 1017.3
20260507094549 15 46 0.0 1.6 0.00 0.00 0.00 79 1017.4
20260507093047 15 55 0.0 1.6 0.00 0.00 0.00 80 1017.6
20260507091546 15 355 0.0 3.2 0.00 0.00 0.00 80 1017.8
20260507090044 15 355 0.0 0.0 0.00 0.00 0.00 79 1018.0
20260507084542 15 355 0.0 0.0 0.00 0.00 0.00 78 1018.1
20260507083040 15 355 0.0 3.2 0.00 0.00 0.00 78 1018.2
20260507081541 15 32 0.0 4.8 0.00 0.00 0.00 78 1018.2
20260507080039 15 349 1.6 3.2 0.00 0.00 0.00 78 1018.3
20260507074542 16 344 1.6 3.2 0.00 0.00 0.00 77 1018.3
20260507073042 16 334 1.6 3.2 0.00 0.00 0.00 78 1018.2
20260507071536 16 301 0.0 6.4 0.00 0.00 0.00 79 1018.2
20260507070035 16 289 3.2 8.0 0.00 0.00 0.00 78 1018.3
20260507064530 16 323 3.2 8.0 0.00 0.00 0.00 77 1018.5
20260507063043 16 314 6.4 8.0 0.00 0.00 0.00 76 1018.6
20260507061533 16 273 3.2 8.0 0.00 0.00 0.00 76 1018.4
20260507060040 17 279 3.2 4.8 0.00 0.00 0.00 75 1018.5
20260507054528 17 249 3.2 9.7 0.00 0.00 0.00 73 1018.5
20260507053028 17 317 4.8 9.7 0.00 0.00 0.00 71 1018.4
20260507051528 17 254 6.4 9.7 0.00 0.00 0.00 70 1018.4
20260507050033 17 261 3.2 9.7 0.00 0.00 0.00 69 1018.3
20260507044526 17 271 4.8 9.7 0.00 0.00 0.00 69 1018.4
20260507043026 18 263 4.8 11.3 0.00 0.00 0.00 69 1018.3
20260507041525 18 261 1.6 11.3 0.00 0.00 0.00 70 1018.2
20260507040026 18 302 3.2 11.3 0.00 0.00 0.00 68 1018.0
20260507034532 18 278 3.2 9.7 0.00 0.00 0.00 67 1017.8
20260507033026 19 259 6.4 14.5 0.00 0.00 0.00 65 1017.7
20260507031522 19 324 6.4 12.9 0.00 0.00 0.00 63 1017.5
20260507030023 20 302 6.4 12.9 0.00 0.00 0.00 62 1017.4
20260507024524 20 345 4.8 12.9 0.00 0.00 0.00 63 1017.3
20260507023024 20 222 6.4 12.9 0.00 0.00 0.00 63 1017.0
20260507021519 20 187 1.6 14.5 0.00 0.00 0.00 61 1017.0
20260507020029 21 191 4.8 12.9 0.00 0.00 0.00 60 1016.7
20260507014518 21 229 8.0 14.5 0.00 0.00 0.00 59 1016.8
20260507013036 21 169 6.4 16.1 0.00 0.00 0.00 58 1016.6
20260507011517 21 223 11.3 17.7 0.00 0.00 0.00 57 1016.4
20260507010017 22 163 8.0 17.7 0.00 0.00 0.00 58 1016.4
20260507004515 22 200 6.4 14.5 0.00 0.00 0.00 56 1016.4
20260507003015 22 256 8.0 19.3 0.00 0.00 0.00 56 1016.4